Regional Weather Roundup
Issued by NWS

Home | Current Version | Previous Version | Graphics & Text | Print | Product List | Glossary On
Versions: 1 2 3 4 5 6 7 8 9 10 11 12 13 14 15 16 17 18 19 20 21 22 23 24 25 26 27 28 29 30 31 32 33 34 35 36 37 38 39 40 41 42 43 44 45 46 47 48 49 50
142
ASUS45 KBOU 290007
RWRCO

WEATHER ROUNDUP FOR COLORADO
NATIONAL WEATHER SERVICE DENVER/BOULDER CO
600 PM MDT FRI APR 28 2017

NOTE: "FAIR" INDICATES FEW OR NO CLOUDS BELOW 12000 FEET WITH NO
SIGNIFICANT WEATHER AND/OR OBSTRUCTIONS TO VISIBILITY.

COZ001>005-013-030-031-290100-
...NORTHWEST COLORADO...

CITY           SKY/WX    TMP DP  RH WIND       PRES   REMARKS
CRAIG          PTSUNNY   43  20  39 CALM      29.80R
HAYDEN         CLOUDY    36  23  60 S12       29.81R
MEEKER         SNOW      33  31  92 N5        29.84R VSB 1/2 WCI  29
MOUNT WERNER   NOT AVBL
STEAMBOAT SPGS FAIR      38  26  63 W12G20    29.80R
WALDEN           N/A     34  23  64 N16G25    29.82R WCI  23
$$

COZ006>008-011-290100-
...WEST CENTRAL VALLEYS...

CITY           SKY/WX    TMP DP  RH WIND       PRES   REMARKS
GRAND JUNCTION CLOUDY    51  16  24 NE10      29.75R
MONTROSE       PTSUNNY   42  21  43 SE15      29.79R
EAGLE          MOSUNNY   43  18  36 CALM      29.79R
RIFLE          FAIR      45  25  45 NW14      29.80R
DELTA          FAIR      51  17  25 W16G22    29.74S
NUCLA          CLOUDY    41  23  48 SE7       29.83R
$$

COZ017>023-064>068-290100-
...SOUTHWEST COLORADO...

CITY           SKY/WX    TMP DP  RH WIND       PRES   REMARKS
DURANGO        FAIR      38  28  67 E14G23    29.74F
CORTEZ         FAIR      45  20  36 NE16      29.77R
PAGOSA SPRINGS PTSUNNY   35  26  70 NW8       29.78R WCI  28
TELLURIDE      LGT SNOW  24  22  93 W7        29.80R VSB 3/4 WCI  16
WOLF CREEK PAS LGT SNOW  16  16 100 S8        29.81R VSB 1   WCI   5
$$

COZ009-010-012-014-032>034-037-058>063-290100-
...CENTRAL COLORADO...

CITY           SKY/WX    TMP DP  RH WIND       PRES   REMARKS
ASPEN          PTSUNNY   37  17  44 N3        29.76R
BUENA VISTA    LGT SNOW  31  27  83 NE14      29.80R VSB 3/4 WCI  21
COPPER MTN     LGT SNOW  23  16  74 CALM      29.80R
BERTHOUD PASS  CLOUDY    12   1  62 E17       29.80R VSB<1/4 WCI  -5
COTTONWOOD PAS CLOUDY    32  23  69 E3        29.80R THUNDER
GUNNISON       FAIR      39   9  29 NW8G16    29.74R
KREMMLING      CLOUDY    41  27  56 SE12      29.79R
LEADVILLE      LGT SNOW  23  16  74 VRB7      29.78R WCI  15
MONARCH PASS   CLOUDY    19  16  86 E22       29.86S WCI   3
SALIDA         CLOUDY    37  23  57 SE3       29.86R
SUNLIGHT       LGT SNOW  19  16  86 W3        29.84R
WILKERSON PASS TSTM      21  18  86 NE8       29.82R VSB 1/2 WCI  12
$$

COZ069>075-290100-
...SAN LUIS VALLEY/SANGRE DE CRISTO MOUNTAINS...

CITY           SKY/WX    TMP DP  RH WIND       PRES   REMARKS
ALAMOSA        LGT SNOW  35  27  72 N17       29.74R WCI  25
LA VETA PASS   CLOUDY    32  19  59 S10G18    29.87R WCI  24
SAGUACHE       FAIR      36  28  75 E8        29.76R HAZE
$$

COZ035-036-038>040-290100-
...NORTHERN COLORADO FRONT RANGE...

CITY           SKY/WX    TMP DP  RH WIND       PRES   REMARKS
DENVER INTL AP SNOW      33  31  92 NE20      29.84R VSB 1/4 WCI  21
DMNS CITY PARK   N/A     35  34  94 NE12G24   29.86R WCI  27
AURORA         SNOW      33  33  99 NE14      29.85R VSB 1/2 WCI  23
FRONT RANGE AP CLOUDY    36  34  93 NE20G25   29.85R VSB 1
ERIE MUNI ARPT CLOUDY    36  33  90 NE16G26   29.88R
BOULDER MUN AP CLOUDY    36  34  93 NE15      29.88R
CENTENNIAL     SNOW      33  33 100 N8        29.84R VSB 1/2 WCI  26
BROOMFIELD     CLOUDY    37  32  81 N20G26    29.85R
FORT COLLINS   LGT SNOW  33  32  96 NE15      29.89F FOG     WCI  23
LONGMONT       MIX PCPN  38  34  86 NE15G21   29.92R
$$

COZ041-046-047-076>085-087-088-290100-
...PIKES PEAK/PALMER DIVIDE AND SOUTHERN FOOTHILLS...

CITY           SKY/WX    TMP DP  RH WIND       PRES   REMARKS
COLO. SPRINGS  CLOUDY    41  30  65 NW16      29.78R
A. F. ACADEMY  FLURRIES  37  29  71 S3        29.79R
SCHRIEVER AFB  NOT AVBL
ELLICOTT       CLOUDY   N/A N/A N/A NE28G33   29.76R
FALCON         PTSUNNY   38  28  69 N13G18    29.78S THUNDER
FORT CARSON    FAIR      40  31  70 NW18      29.77R
LIMON          CLOUDY    38  34  85 NE28G35   29.79R THUNDER
MONUMENT HILL  CLOUDY    32  30  93 N16G24    29.81R WCI  21
TRINIDAD       FAIR      53  28  38 SW13      29.64S
$$

COZ042>045-048>051-090-091-290100-
...NORTHEAST COLORADO...

CITY           SKY/WX    TMP DP  RH WIND       PRES   REMARKS
GREELEY ARPT   LGT RAIN  35  33  92 NE22      29.91R WCI  23
AKRON          MIX PCPN  33  31  92 NE17G28   29.88R VSB 1/4 WCI  22
BURLINGTON     NOT AVBL
WRAY           NOT AVBL
STERLING       CLOUDY    34  32  93 E16G23    29.93R FOG     WCI  23
HOLYOKE        CLOUDY    37  34  87 NE18G24   29.95R
FORT MORGAN    LGT SNOW  34  32  93 NE26      29.90R WCI  21
$$

COZ086-089-092>099-290100-
...SOUTHEAST COLORADO...

CITY           SKY/WX    TMP DP  RH WIND       PRES   REMARKS
PUEBLO         CLOUDY    52  27  38 N21G29    29.69R
LA JUNTA       FAIR      57  35  43 SE13      29.69R
LAMAR          PTSUNNY   53  39  59 E16       29.75R
SPRINGFIELD      N/A     43  40  89 SE13      29.73R
$$




USA.gov is the U.S. government's official web portal to all federal, state and local government web resources and services.